Weather History for St. Augustine, FL

Change the Weather History Date:

Saturday, December 7, 2013

  Actual Average Record
Temperature  
Mean Temperature 73 °F -  
Max Temperature 82 °F 67 °F 82 °F (2013)
Min Temperature 64 °F 50 °F 29 °F (1984)
Cooling Degree Days 8    
Growing Degree Days 23 (Base 50)    
Moisture  
Dew Point 67 °F    
Average Humidity 83    
Maximum Humidity 97    
Minimum Humidity 58    
Precipitation  
Precipitation 0.00 in - - ()
Sea Level Pressure  
Sea Level Pressure 30.21 in    
Wind  
Wind Speed 6 mph (SSW)    
Max Wind Speed 12 mph    
Max Gust Speed -    
Visibility 10 miles    
Events      
Averages and records for this station are not official NWS values.
T = Trace of Precipitation, MM = Missing Value Source: NWS Daily Summary

Daily Weather History Graph

Daily Weather History Graph

Search for Another Location

Airport:

Trip Planner

Search our weather history database for the weather conditions in past years. The results will help you decide how hot, cold, wet, or windy it might be!

Date:

Astronomy

Dec. 07, 2013 Rise Set
Actual Time 7:08 AM EST 5:25 PM EST
Civil Twilight 6:42 AM EST 5:51 PM EST
Nautical Twilight 6:12 AM EST 6:21 PM EST
Astronomical Twilight 5:43 AM EST 6:50 PM EST
Moon 11:07 AM EST (12/7) 10:48 PM EST (12/7)
Length of Visible Light 11h 09m
Length of Day
10h 17m
Waxing Crescent, 29% of the Moon is Illuminated
Dec 7
Waxing Crescent
Dec 9
First Quarter
Dec 17
Full
Dec 25
Last Quarter
Jan 1
New

Hourly Weather History & Observations

Time (EST) Temp. Heat Index Dew Point Humidity Pressure Visibility Wind Dir Wind Speed Gust Speed Precip Events Conditions
12:58 AM 70.0 °F - 66.9 °F 90% 30.19 in 10.0 mi SW 4.6 mph - N/A   Mostly Cloudy
1:58 AM 69.1 °F - 66.9 °F 93% 30.18 in 10.0 mi SW 4.6 mph - N/A   Partly Cloudy
2:58 AM 69.1 °F - 66.9 °F 93% 30.17 in 10.0 mi SW 4.6 mph - N/A   Clear
3:58 AM 69.1 °F - 66.9 °F 93% 30.17 in 10.0 mi SW 3.5 mph - N/A   Clear
4:58 AM 68.0 °F - 66.0 °F 93% 30.18 in 10.0 mi Calm Calm - N/A   Clear
5:58 AM 66.0 °F - 64.9 °F 96% 30.19 in 10.0 mi SSW 3.5 mph - N/A   Clear
6:58 AM 64.9 °F - 64.0 °F 97% 30.22 in 10.0 mi SW 3.5 mph - N/A   Clear
7:58 AM 66.9 °F - 66.0 °F 97% 30.24 in 9.0 mi West 4.6 mph - N/A   Clear
8:58 AM 71.1 °F - 68.0 °F 90% 30.24 in 10.0 mi SW 5.8 mph - N/A   Clear
9:58 AM 75.0 °F - 69.1 °F 82% 30.25 in 10.0 mi WSW 9.2 mph - N/A   Clear
10:58 AM 78.1 °F - 69.1 °F 74% 30.25 in 10.0 mi SSW 9.2 mph - N/A   Partly Cloudy
11:58 AM 80.1 °F 82.7 °F 68.0 °F 67% 30.23 in 10.0 mi SW 9.2 mph - N/A   Clear
12:58 PM 81.0 °F 83.3 °F 66.9 °F 62% 30.20 in 10.0 mi SW 9.2 mph - N/A   Scattered Clouds
1:58 PM 82.0 °F 84.1 °F 66.0 °F 58% 30.18 in 10.0 mi SW 10.4 mph - N/A   Mostly Cloudy
2:58 PM 79.0 °F - 68.0 °F 69% 30.17 in 10.0 mi SE 11.5 mph - N/A   Scattered Clouds
3:58 PM 78.1 °F - 66.9 °F 68% 30.17 in 10.0 mi SE 9.2 mph - N/A   Scattered Clouds
4:58 PM 75.0 °F - 66.9 °F 76% 30.18 in 10.0 mi SSE 6.9 mph - N/A   Clear
5:58 PM 72.0 °F - 66.0 °F 81% 30.19 in 10.0 mi SSE 9.2 mph - N/A   Clear
6:58 PM 71.1 °F - 64.9 °F 81% 30.20 in 10.0 mi SSE 8.1 mph - N/A   Clear
7:58 PM 70.0 °F - 64.0 °F 81% 30.22 in 10.0 mi South 4.6 mph - N/A   Clear
8:58 PM 70.0 °F - 64.0 °F 81% 30.22 in 10.0 mi South 5.8 mph - N/A   Clear
9:58 PM 69.1 °F - 66.0 °F 90% 30.23 in 10.0 mi South 4.6 mph - N/A   Clear
10:58 PM 70.0 °F - 66.9 °F 90% 30.23 in 10.0 mi South 4.6 mph - N/A   Overcast
11:58 PM 70.0 °F - 66.9 °F 90% 30.23 in 10.0 mi South 4.6 mph - N/A   Partly Cloudy